This is the latest recevied weather packets stored in our database for station/object DO1SC. If no packets are shown the sender has not sent any weather packets the latest 10 day(s).
| Time | Temp. | Humidity | Pressure | Rain* | Wind** | Luminosity | Snow |
|---|---|---|---|---|---|---|---|
| 1777563929 | 13.89° C | 35% | 1029.2 hPa | - | - | 50 W/m² | - |
| 1777563321 | 13.89° C | 35% | 1029.3 hPa | - | - | 42 W/m² | - |
| 1777562732 | 13.89° C | 35% | 1029.3 hPa | - | - | 40 W/m² | - |
| 1777562124 | 13.89° C | 34% | 1029.1 hPa | - | - | 287 W/m² | - |
| 1777560927 | 13.89° C | 34% | 1029.4 hPa | - | - | 363 W/m² | - |
| 1777559122 | 13.89° C | 31% | 1029.4 hPa | - | - | 455 W/m² | - |
| 1777558533 | 13.89° C | 31% | 1029.5 hPa | - | - | 482 W/m² | - |
| 1777557336 | 13.89° C | 31% | 1029.7 hPa | - | - | 528 W/m² | - |
| 1777555531 | 13.89° C | 29% | 1029.7 hPa | - | - | 584 W/m² | - |
| 1777554923 | 13.33° C | 29% | 1029.8 hPa | - | - | 600 W/m² | - |
| 1777554334 | 13.33° C | 30% | 1030 hPa | - | - | 613 W/m² | - |
| 1777553725 | 12.78° C | 31% | 1030 hPa | - | - | 627 W/m² | - |
| 1777553117 | 12.78° C | 29% | 1030.1 hPa | - | - | 637 W/m² | - |
| 1777552528 | 12.78° C | 31% | 1030.3 hPa | - | - | 647 W/m² | - |
| 1777551919 | 12.78° C | 31% | 1030.3 hPa | - | - | 657 W/m² | - |
| 1777551331 | 12.78° C | 30% | 1030.5 hPa | - | - | 660 W/m² | - |
| 1777550726 | 12.78° C | 31% | 1030.6 hPa | - | - | 665 W/m² | - |
| 1777548329 | 12.22° C | 30% | 1030.7 hPa | - | - | 679 W/m² | - |
| 1777547720 | 12.22° C | 30% | 1030.7 hPa | - | - | 680 W/m² | - |
| 1777546521 | 11.67° C | 32% | 1031 hPa | - | - | 675 W/m² | - |
| 1777545933 | 11.11° C | 32% | 1031 hPa | - | - | 669 W/m² | - |
| 1777545324 | 11.11° C | 32% | 1030.9 hPa | - | - | 666 W/m² | - |
| 1777544736 | 10.56° C | 32% | 1031.1 hPa | - | - | 654 W/m² | - |
| 1777544127 | 10.56° C | 32% | 1031.2 hPa | - | - | 647 W/m² | - |
| 1777543517 | 10.56° C | 32% | 1031.1 hPa | - | - | 638 W/m² | - |
* Rain since midnight (hover to see other rain measurements)
** Current wind speed in m/s (hover to see current wind gust speed)